User: anonymous   Login
Location: Ellerstadt
(49.4644°N, 8.2615°E)
Time: 10:20:03
(UTC+00:00)
Language:

Courier 1B Rocket - Orbit

View from above orbital plane
View from above orbital plane
View from above satellite
View from above satellite

Ground track
Ground track

The orbit data is extracted from the following two-line orbital elements,

1 00059U 60013B   21163.68226142  .00000086  00000-0  82082-6 0  9998
2 00059  28.2459 167.7791 0189297  69.7078 292.3705 13.52986242995134
Epoch (UTC): 12 June 2021 16:22:27
Eccentricity: 0.0189297
inclination: 28.2459°
perigee height: 920 km
apogee height: 1202 km
right ascension of ascending node: 167.7791°
argument of perigee: 69.7078°
revolutions per day: 13.52986242
mean anomaly at epoch: 292.3705°
orbit number at epoch: 99513

The dashed part of the orbit path shows where the satellite is in the earth's shadow,  

DLR